Flag for Germany Weather past 2 weeks in Walsrode, Lower Saxony, Germany

Now
50 °F

Rain. Fog.


Feels Like: 44 °F
Forecast: 49 / 51 °F
Wind: 18 mph from West

Location: Fassberg

Current Time: Dec 22, 2014 at 11:45:40 PM

Latest Report: Dec 22, 2014 at 10:20 PM


Visibility: 2 mi

Pressure: 29.83 "Hg

Humidity: 94%

Dew point: 48 °F

Location of WalsrodeLocation

Historic Weather in Walsrode — Graph

°F

Walsrode temperature yesterday

Maximum temperature yesterday: 46 °F (at 10:20 PM)
Minimum temperature yesterday: 37 °F (at 8:20 AM)
Average temperature yesterday: 41 °F

Past Weeks' High & Low Weather Summary

 TemperatureHumidityPressure
High54 °F (Dec 18, 8:20 PM)100% (Dec 14, 12:20 AM)30.33 "Hg (Dec 14, 12:20 AM)
Low32 °F (Dec 14, 11:20 PM)70% (Dec 10, 4:20 AM)29.27 "Hg (Dec 12, 2:20 PM)
Average41 °F88%29.83 "Hg
* Reported Dec 7 10:20 PM — Dec 22 10:20 PM, Walsrode, Weather by CustomWeather, © 2014

Note: Actual official high and low records may vary slightly from our data, if they occured in-between our weather recording intervals... More about our weather records

Advertising

Walsrode weather history for previous 24 hours

 ConditionsComfort  
Time TempWeatherWind HumidityBarometerVisibility
10:20 PM
Dec 22
50 °FRain. Fog.18 mph94%29.83 "Hg2 mi
9:20 PM50 °FRain. Fog.16 mph94%29.83 "Hg1 mi
8:20 PM50 °FDrizzle. Fog.18 mph94%29.83 "Hg2 mi
7:20 PM50 °FDrizzle. Fog.16 mph94%29.83 "Hg1 mi
6:20 PM50 °FDrizzle. Fog.16 mph94%29.83 "Hg2 mi
5:20 PM50 °FDrizzle. Fog.20 mph94%29.80 "Hg1 mi
4:20 PM50 °FDrizzle. Fog.20 mph94%29.80 "Hg2 mi
3:20 PM50 °FDrizzle. Fog.23 mph94%29.77 "Hg2 mi
2:20 PM50 °FDrizzle. Fog.24 mph88%29.77 "Hg2 mi
1:20 PM50 °FDrizzle. Fog.24 mph94%29.80 "Hg2 mi
12:20 PM50 °FDrizzle. Fog.25 mph94%29.80 "Hg2 mi
11:20 AM50 °FPartly sunny.26 mph88%29.77 "HgN/A
11:03 AM50 °FPartly sunny.26 mph88%29.77 "HgN/A
10:20 AM48 °FDrizzle. Fog.25 mph94%29.80 "Hg2 mi
9:46 AM48 °FDrizzle. Fog.25 mph94%29.80 "Hg3 mi
9:20 AM48 °FPartly sunny.26 mph94%29.80 "Hg5 mi
9:04 AM48 °FPartly sunny.24 mph94%29.80 "Hg4 mi
8:20 AM48 °FDrizzle. Fog.26 mph94%29.83 "Hg2 mi
7:20 AM48 °FDrizzle. Fog.24 mph94%29.83 "Hg2 mi
6:20 AM48 °FDrizzle. Fog.24 mph94%29.83 "Hg1 mi
5:20 AM48 °FDrizzle. Fog.24 mph87%29.83 "Hg2 mi
4:20 AM48 °FLight rain. Fog.25 mph87%29.86 "Hg2 mi
3:20 AM46 °FDrizzle. Fog.24 mph93%29.89 "Hg2 mi
2:45 AM46 °FDrizzle. Fog.25 mph93%29.89 "Hg2 mi
2:20 AM48 °FLight rain. Fog.24 mph87%29.89 "Hg3 mi
1:20 AM46 °FPassing clouds.25 mph87%29.92 "HgN/A
12:20 AM46 °FLight rain. Passing clouds.22 mph87%29.95 "HgN/A
11:20 PM
Dec 21
46 °FPassing clouds.21 mph82%29.95 "HgN/A
Weather by CustomWeather, © 2014

See weather overviewHow to use our weather pages